Las Vegas, NV

8:49 PM PST on November 19, 2017 (GMT -0800)
McCarran International

Weather History for KLAS - August, 2013

Change the Weather History Date:

Monday, August 19, 2013

  Actual Average Record
Temperature  
Mean Temperature 85 °F 90 °F  
Max Temperature 97 °F 102 °F 111 °F (1992)
Min Temperature 72 °F 79 °F 60 °F (1938)
Degree Days  
Heating Degree Days 0 0  
Month to date heating degree days 0 0  
Since 1 June heating degree days 0 1  
Since 1 July heating degree days 0 0  
Cooling Degree Days 20 25  
Month to date cooling degree days 499 504  
Year to date cooling degree days 2908 2558  
Since 1 June cooling degree days 2218 2008  
Growing Degree Days 35 (Base 50)    
Moisture  
Dew Point 61 °F    
Average Humidity 50    
Maximum Humidity 74    
Minimum Humidity 25    
Precipitation  
Precipitation 0.01 in 0.01 in 0.18 in (2003)
Month to date precipitation 0.17 0.21  
Year to date precipitation 1.08 2.69  
Snow  
Snow 0.00 in 0.00 in 0.00 in ()
Month to date snowfall 0.0 0.0  
Since 1 June snowfall 0.0 0.0  
Since 1 July snowfall 0.0 0.0  
Snow Depth 0.00 in    
Sea Level Pressure  
Sea Level Pressure 29.88 in    
Wind  
Wind Speed 7 mph (South)    
Max Wind Speed 16 mph    
Max Gust Speed 21 mph    
Visibility 10 miles    
Events Rain    
T = Trace of Precipitation, MM = Missing Value Source: NWS Daily Summary

Daily Weather History Graph

Daily Weather History Graph

Search for Another Location

Airport or City:

Trip Planner

Search our weather history database for the weather conditions in past years. The results will help you decide how hot, cold, wet, or windy it might be!

Date:

Astronomy

Aug. 19, 2013 Rise Set
Actual Time 6:02 AM PDT 7:25 PM PDT
Civil Twilight 5:35 AM PDT 7:52 PM PDT
Nautical Twilight 5:03 AM PDT 8:24 PM PDT
Astronomical Twilight 4:29 AM PDT 8:57 PM PDT
Moon 6:19 PM PDT (8/19) 4:27 AM PDT (8/19)
Length of Visible Light 14h 16m
Length of Day
13h 22m
Waxing Gibbous, 98% of the Moon is Illuminated
Aug 19
Waxing Gibbous
Aug 20
Full
Aug 28
Last Quarter
Sep 5
New
Sep 12
First Quarter

Hourly Weather History & Observations

Time (PDT) Temp. Heat Index Dew Point Humidity Pressure Visibility Wind Dir Wind Speed Gust Speed Precip Events Conditions
12:36 AM 75.2 °F - 68.0 °F 78% 30.03 in 10.0 mi SE 9.2 mph - 0.03 in Rain Light Rain
12:56 AM 75.9 °F - 64.9 °F 69% 29.99 in 10.0 mi South 15.0 mph 27.6 mph 0.03 in Rain Light Rain
1:56 AM 73.9 °F - 63.0 °F 68% 29.94 in 10.0 mi SW 5.8 mph - 0.01 in Rain Light Rain
2:56 AM 73.0 °F - 64.9 °F 76% 29.91 in 10.0 mi WNW 4.6 mph - 0.00 in   Mostly Cloudy
3:56 AM 73.9 °F - 64.9 °F 73% 29.94 in 10.0 mi South 8.1 mph - N/A   Overcast
4:56 AM 75.0 °F - 66.0 °F 73% 29.94 in 10.0 mi Calm Calm - N/A   Overcast
5:56 AM 75.0 °F - 64.9 °F 71% 29.93 in 10.0 mi Calm Calm - N/A   Mostly Cloudy
6:56 AM 73.9 °F - 64.9 °F 73% 29.93 in 10.0 mi South 10.4 mph - N/A   Mostly Cloudy
7:56 AM 77.0 °F - 64.0 °F 64% 29.93 in 10.0 mi SSW 10.4 mph - N/A   Scattered Clouds
8:56 AM 82.0 °F 82.7 °F 61.0 °F 49% 29.94 in 10.0 mi SSW 3.5 mph - N/A   Scattered Clouds
9:56 AM 84.0 °F 84.4 °F 61.0 °F 46% 29.94 in 10.0 mi Variable 3.5 mph - N/A   Mostly Cloudy
10:56 AM 87.1 °F 86.7 °F 60.1 °F 40% 29.94 in 10.0 mi Calm Calm - N/A   Mostly Cloudy
11:56 AM 89.1 °F 88.0 °F 57.9 °F 35% 29.93 in 10.0 mi Calm Calm - N/A   Mostly Cloudy
12:56 PM 91.0 °F 90.0 °F 57.9 °F 33% 29.90 in 10.0 mi Variable 3.5 mph - N/A   Mostly Cloudy
1:56 PM 91.9 °F 90.8 °F 57.9 °F 32% 29.88 in 10.0 mi SSW 6.9 mph - N/A   Mostly Cloudy
2:56 PM 93.9 °F 92.2 °F 55.9 °F 28% 29.84 in 10.0 mi South 11.5 mph - N/A   Mostly Cloudy
3:56 PM 95.0 °F 93.4 °F 55.9 °F 27% 29.81 in 10.0 mi SSE 6.9 mph - N/A   Mostly Cloudy
4:56 PM 97.0 °F 95.7 °F 57.0 °F 26% 29.78 in 10.0 mi SSE 9.2 mph - N/A   Mostly Cloudy
5:56 PM 97.0 °F 95.0 °F 55.0 °F 24% 29.76 in 10.0 mi South 10.4 mph - N/A   Mostly Cloudy
6:56 PM 95.0 °F 93.7 °F 57.0 °F 28% 29.77 in 10.0 mi South 12.7 mph - N/A   Mostly Cloudy
7:56 PM 93.0 °F 92.3 °F 59.0 °F 32% 29.77 in 10.0 mi South 15.0 mph - N/A   Mostly Cloudy
8:56 PM 91.0 °F 91.9 °F 63.0 °F 39% 29.79 in 10.0 mi South 10.4 mph - 0.00 in   Mostly Cloudy
9:56 PM 91.0 °F 90.9 °F 61.0 °F 36% 29.79 in 10.0 mi South 10.4 mph - N/A   Mostly Cloudy
10:56 PM 88.0 °F 87.9 °F 61.0 °F 40% 29.79 in 10.0 mi SSW 9.2 mph - N/A   Mostly Cloudy
11:56 PM 88.0 °F 87.1 °F 59.0 °F 37% 29.76 in 10.0 mi South 10.4 mph - N/A   Mostly Cloudy